Time,TemperatureF,DewpointF,PressureIn,WindDirection,WindDirectionDegrees,WindSpeedMPH,WindSpeedGustMPH,Humidity,HourlyPrecipIn,Conditions,Clouds,dailyrainin,SolarRadiationWatts/m^2,SoftwareType,DateUTC
2013-05-19 00:03:00,69.0,67.0,-100.00,SSW,203,0.0,5.0,93,0.02,,,1.05,0.000000,,2013-05-19 04:03:00,
2013-05-19 00:33:00,68.0,66.0,-100.00,SW,227,0.0,7.0,94,0.12,,,1.15,0.000000,,2013-05-19 04:33:00,
2013-05-19 00:42:00,68.0,66.0,-100.00,SW,227,0.0,7.0,94,0.12,,,1.15,0.000000,,2013-05-19 04:42:00,
2013-05-19 00:53:00,68.0,66.0,-100.00,SW,227,0.0,7.0,94,0.12,,,1.15,0.000000,,2013-05-19 04:53:00,
2013-05-19 01:02:00,68.0,66.0,-100.00,SW,227,0.0,7.0,94,0.12,,,1.15,0.000000,,2013-05-19 05:02:00,
2013-05-19 01:32:00,68.0,67.0,-100.00,SE,143,0.0,3.0,97,0.06,,,1.14,0.000000,,2013-05-19 05:32:00,
2013-05-19 01:42:00,68.0,67.0,-100.00,SE,143,0.0,3.0,97,0.06,,,1.14,0.000000,,2013-05-19 05:42:00,
2013-05-19 01:52:00,68.0,67.0,-100.00,SE,143,0.0,3.0,97,0.06,,,1.14,0.000000,,2013-05-19 05:52:00,
2013-05-19 02:02:00,68.0,67.0,-100.00,SE,143,0.0,3.0,97,0.06,,,1.14,0.000000,,2013-05-19 06:02:00,
2013-05-19 02:32:00,68.0,67.0,-100.00,South,169,3.0,5.0,97,0.02,,,1.12,0.000000,,2013-05-19 06:32:00,
2013-05-19 02:42:00,68.0,67.0,-100.00,South,169,3.0,5.0,97,0.02,,,1.12,0.000000,,2013-05-19 06:42:00,
2013-05-19 02:52:00,68.0,67.0,-100.00,South,169,3.0,5.0,97,0.02,,,1.12,0.000000,,2013-05-19 06:52:00,
2013-05-19 03:01:00,68.0,67.0,-100.00,South,169,3.0,5.0,97,0.02,,,1.12,0.000000,,2013-05-19 07:01:00,
2013-05-19 03:32:00,68.0,67.0,-100.00,SSW,193,0.0,5.0,96,0.00,,,1.08,0.000000,,2013-05-19 07:32:00,
2013-05-19 03:42:00,68.0,67.0,-100.00,SSW,193,0.0,5.0,96,0.00,,,1.08,0.000000,,2013-05-19 07:42:00,
2013-05-19 03:52:00,68.0,67.0,-100.00,SSW,193,0.0,5.0,96,0.00,,,1.08,0.000000,,2013-05-19 07:52:00,
2013-05-19 04:02:00,68.0,67.0,-100.00,SSW,193,0.0,5.0,96,0.00,,,1.08,0.000000,,2013-05-19 08:02:00,
2013-05-19 04:32:00,67.0,66.0,-100.00,SW,231,0.0,4.0,97,0.00,,,0.37,0.000000,,2013-05-19 08:32:00,
2013-05-19 04:42:00,67.0,66.0,-100.00,SW,231,0.0,4.0,97,0.00,,,0.37,0.000000,,2013-05-19 08:42:00,
2013-05-19 04:52:00,67.0,66.0,-100.00,SW,231,0.0,4.0,97,0.00,,,0.37,0.000000,,2013-05-19 08:52:00,
2013-05-19 05:02:00,67.0,66.0,-100.00,SW,231,0.0,4.0,97,0.00,,,0.37,0.000000,,2013-05-19 09:02:00,
2013-05-19 05:33:00,67.0,66.0,-100.00,South,171,2.0,4.0,97,0.00,,,0.30,0.000000,,2013-05-19 09:33:00,
2013-05-19 05:43:00,67.0,66.0,-100.00,South,171,2.0,4.0,97,0.00,,,0.30,0.000000,,2013-05-19 09:43:00,
2013-05-19 05:53:00,67.0,66.0,-100.00,South,171,2.0,4.0,97,0.00,,,0.30,0.000000,,2013-05-19 09:53:00,
2013-05-19 06:03:00,67.0,66.0,-100.00,South,171,2.0,4.0,97,0.00,,,0.30,0.000000,,2013-05-19 10:03:00,
2013-05-19 06:33:00,67.0,66.0,-100.00,NNW,337,1.0,4.0,98,0.00,,,0.30,0.000000,,2013-05-19 10:33:00,
2013-05-19 06:42:00,67.0,66.0,-100.00,NNW,337,1.0,4.0,98,0.00,,,0.30,0.000000,,2013-05-19 10:42:00,
2013-05-19 06:53:00,67.0,66.0,-100.00,NNW,337,1.0,4.0,98,0.00,,,0.30,0.000000,,2013-05-19 10:53:00,
2013-05-19 07:02:00,67.0,66.0,-100.00,NNW,337,1.0,4.0,98,0.00,,,0.30,0.000000,,2013-05-19 11:02:00,
2013-05-19 07:32:00,68.0,67.0,-100.00,West,267,0.0,5.0,98,0.00,,,0.30,1.000000,,2013-05-19 11:32:00,
2013-05-19 07:42:00,68.0,67.0,-100.00,West,267,0.0,5.0,98,0.00,,,0.30,1.000000,,2013-05-19 11:42:00,
2013-05-19 07:53:00,68.0,67.0,-100.00,West,267,0.0,5.0,98,0.00,,,0.30,1.000000,,2013-05-19 11:53:00,
2013-05-19 08:01:00,68.0,67.0,-100.00,West,267,0.0,5.0,98,0.00,,,0.30,1.000000,,2013-05-19 12:01:00,
2013-05-19 08:32:00,69.0,68.0,-100.00,NNW,328,1.0,4.0,97,0.00,,,0.30,18.000000,,2013-05-19 12:32:00,
2013-05-19 08:42:00,69.0,68.0,-100.00,NNW,328,1.0,4.0,97,0.00,,,0.30,18.000000,,2013-05-19 12:42:00,
2013-05-19 08:52:00,69.0,68.0,-100.00,NNW,328,1.0,4.0,97,0.00,,,0.30,18.000000,,2013-05-19 12:52:00,
2013-05-19 09:01:00,69.0,68.0,-100.00,NNW,328,1.0,4.0,97,0.00,,,0.30,18.000000,,2013-05-19 13:01:00,
2013-05-19 10:32:00,71.0,68.0,-100.00,SW,216,4.0,6.0,90,-99.99,,,0.30,63.000000,,2013-05-19 14:32:00,
2013-05-19 10:42:00,71.0,68.0,-100.00,SW,216,4.0,6.0,90,-99.99,,,0.30,63.000000,,2013-05-19 14:42:00,
2013-05-19 10:52:00,71.0,68.0,-100.00,SW,216,4.0,6.0,90,-99.99,,,0.30,63.000000,,2013-05-19 14:52:00,
2013-05-19 11:02:00,71.0,68.0,-100.00,SW,216,4.0,6.0,90,-99.99,,,0.30,63.000000,,2013-05-19 15:02:00,
2013-05-19 11:33:00,69.0,68.0,-100.00,South,175,6.0,13.0,95,0.58,,,-99.99,44.000000,,2013-05-19 15:33:00,
2013-05-19 11:43:00,69.0,68.0,-100.00,South,175,6.0,13.0,95,0.58,,,-99.99,44.000000,,2013-05-19 15:43:00,
2013-05-19 11:53:00,69.0,68.0,-100.00,South,175,6.0,13.0,95,0.58,,,-99.99,44.000000,,2013-05-19 15:53:00,
2013-05-19 12:03:00,69.0,68.0,-100.00,South,175,6.0,13.0,95,0.58,,,-99.99,44.000000,,2013-05-19 16:03:00,
2013-05-19 12:33:00,69.0,68.0,-100.00,SW,225,3.0,8.0,96,0.50,,,1.38,4.000000,,2013-05-19 16:33:00,
2013-05-19 12:42:00,69.0,68.0,-100.00,SW,225,3.0,8.0,96,0.50,,,1.38,4.000000,,2013-05-19 16:42:00,
2013-05-19 12:53:00,69.0,68.0,-100.00,SW,225,3.0,8.0,96,0.50,,,1.38,4.000000,,2013-05-19 16:53:00,
2013-05-19 13:02:00,69.0,68.0,-100.00,SW,225,3.0,8.0,96,0.50,,,1.38,4.000000,,2013-05-19 17:02:00,
2013-05-19 13:32:00,67.0,66.0,-100.00,South,191,7.0,13.0,95,0.33,,,1.71,6.000000,,2013-05-19 17:32:00,
2013-05-19 13:43:00,67.0,66.0,-100.00,South,191,7.0,13.0,95,0.33,,,1.71,6.000000,,2013-05-19 17:43:00,
2013-05-19 13:52:00,67.0,66.0,-100.00,South,191,7.0,13.0,95,0.33,,,1.71,6.000000,,2013-05-19 17:52:00,
2013-05-19 14:02:00,67.0,66.0,-100.00,South,191,7.0,13.0,95,0.33,,,1.71,6.000000,,2013-05-19 18:02:00,
2013-05-19 14:32:00,67.0,65.0,-100.00,East,94,3.0,19.0,92,0.24,,,1.95,18.000000,,2013-05-19 18:32:00,
2013-05-19 14:43:00,67.0,65.0,-100.00,East,94,3.0,19.0,92,0.24,,,1.95,18.000000,,2013-05-19 18:43:00,
2013-05-19 14:53:00,67.0,65.0,-100.00,East,94,3.0,19.0,92,0.24,,,1.95,18.000000,,2013-05-19 18:53:00,
2013-05-19 15:01:00,67.0,65.0,-100.00,East,94,3.0,19.0,92,0.24,,,1.95,18.000000,,2013-05-19 19:01:00,
2013-05-19 15:32:00,67.0,65.0,-100.00,SSW,203,6.0,13.0,94,0.26,,,2.21,12.000000,,2013-05-19 19:32:00,
2013-05-19 15:42:00,67.0,65.0,-100.00,SSW,203,6.0,13.0,94,0.26,,,2.21,12.000000,,2013-05-19 19:42:00,
2013-05-19 15:52:00,67.0,65.0,-100.00,SSW,203,6.0,13.0,94,0.26,,,2.21,12.000000,,2013-05-19 19:52:00,
2013-05-19 16:02:00,67.0,65.0,-100.00,SSW,203,6.0,13.0,94,0.26,,,2.21,12.000000,,2013-05-19 20:02:00,
2013-05-19 16:32:00,66.0,65.0,-100.00,SSW,203,7.0,14.0,95,0.01,,,2.22,8.000000,,2013-05-19 20:32:00,
2013-05-19 16:42:00,66.0,65.0,-100.00,SSW,203,7.0,14.0,95,0.01,,,2.22,8.000000,,2013-05-19 20:42:00,
2013-05-19 16:52:00,66.0,65.0,-100.00,SSW,203,7.0,14.0,95,0.01,,,2.22,8.000000,,2013-05-19 20:52:00,
2013-05-19 17:02:00,66.0,65.0,-100.00,SSW,203,7.0,14.0,95,0.01,,,2.22,8.000000,,2013-05-19 21:02:00,
2013-05-19 17:32:00,66.0,65.0,-100.00,WSW,248,4.0,13.0,95,0.01,,,2.23,11.000000,,2013-05-19 21:32:00,
2013-05-19 17:43:00,66.0,65.0,-100.00,WSW,248,4.0,13.0,95,0.01,,,2.23,11.000000,,2013-05-19 21:43:00,
2013-05-19 17:53:00,66.0,65.0,-100.00,WSW,248,4.0,13.0,95,0.01,,,2.23,11.000000,,2013-05-19 21:53:00,
2013-05-19 18:03:00,66.0,65.0,-100.00,WSW,248,4.0,13.0,95,0.01,,,2.23,11.000000,,2013-05-19 22:03:00,
2013-05-19 18:33:00,65.0,63.0,-100.00,SW,220,3.0,14.0,94,0.00,,,2.23,19.000000,,2013-05-19 22:33:00,
2013-05-19 18:43:00,65.0,63.0,-100.00,SW,220,3.0,14.0,94,0.00,,,2.23,19.000000,,2013-05-19 22:43:00,
2013-05-19 18:53:00,65.0,63.0,-100.00,SW,220,3.0,14.0,94,0.00,,,2.23,19.000000,,2013-05-19 22:53:00,
2013-05-19 19:03:00,65.0,63.0,-100.00,SW,220,3.0,14.0,94,0.00,,,2.23,19.000000,,2013-05-19 23:03:00,
2013-05-19 19:32:00,64.0,62.0,-100.00,SSE,158,1.0,11.0,93,0.00,,,2.23,18.000000,,2013-05-19 23:32:00,
2013-05-19 19:42:00,64.0,62.0,-100.00,SSE,158,1.0,11.0,93,0.00,,,2.23,18.000000,,2013-05-19 23:42:00,
2013-05-19 19:52:00,64.0,62.0,-100.00,SSE,158,1.0,11.0,93,0.00,,,2.23,18.000000,,2013-05-19 23:52:00,
2013-05-19 20:02:00,64.0,62.0,-100.00,SSE,158,1.0,11.0,93,0.00,,,2.23,18.000000,,2013-05-20 00:02:00,
2013-05-19 20:32:00,64.0,61.0,-100.00,SE,143,2.0,9.0,91,0.00,,,-99.99,17.000000,,2013-05-20 00:32:00,
2013-05-19 20:42:00,64.0,61.0,-100.00,SE,143,2.0,9.0,91,0.00,,,-99.99,17.000000,,2013-05-20 00:42:00,
2013-05-19 20:52:00,64.0,61.0,-100.00,SE,143,2.0,9.0,91,0.00,,,-99.99,17.000000,,2013-05-20 00:52:00,
2013-05-19 21:01:00,64.0,61.0,-100.00,SE,143,2.0,9.0,91,0.00,,,-99.99,17.000000,,2013-05-20 01:01:00,
2013-05-19 21:32:00,63.0,62.0,-100.00,SW,235,2.0,4.0,95,0.00,,,-99.99,8.000000,,2013-05-20 01:32:00,
2013-05-19 21:42:00,63.0,62.0,-100.00,SW,235,2.0,4.0,95,0.00,,,-99.99,8.000000,,2013-05-20 01:42:00,
2013-05-19 21:52:00,63.0,62.0,-100.00,SW,235,2.0,4.0,95,0.00,,,-99.99,8.000000,,2013-05-20 01:52:00,
2013-05-19 22:02:00,63.0,62.0,-100.00,SW,235,2.0,4.0,95,0.00,,,-99.99,8.000000,,2013-05-20 02:02:00,
2013-05-19 22:32:00,61.0,60.0,-100.00,ENE,78,0.0,3.0,97,0.00,,,2.15,0.000000,,2013-05-20 02:32:00,
2013-05-19 22:42:00,61.0,60.0,-100.00,ENE,78,0.0,3.0,97,0.00,,,2.15,0.000000,,2013-05-20 02:42:00,
2013-05-19 22:52:00,61.0,60.0,-100.00,ENE,78,0.0,3.0,97,0.00,,,2.15,0.000000,,2013-05-20 02:52:00,
2013-05-19 23:02:00,61.0,60.0,-100.00,ENE,78,0.0,3.0,97,0.00,,,2.15,0.000000,,2013-05-20 03:02:00,
2013-05-19 23:33:00,60.0,59.0,-100.00,ESE,122,0.0,3.0,97,0.00,,,2.13,0.000000,,2013-05-20 03:33:00,
2013-05-19 23:43:00,60.0,59.0,-100.00,ESE,122,0.0,3.0,97,0.00,,,2.13,0.000000,,2013-05-20 03:43:00,
2013-05-19 23:53:00,60.0,59.0,-100.00,ESE,122,0.0,3.0,97,0.00,,,2.13,0.000000,,2013-05-20 03:53:00,